• In Hungary
  • List of Countries
  • For 7 days
  • Water Temperature
  • Satellite Maps
  • Weather Map
  • News
  • Weather Widgets
  • user-avatar
    Login

    Hourly Weather Konarevka

    Today, 22 May, Tuesday

    Time Temperature Precipitation Wind Pressure Humidity
    00:00 +9°C° 0 mm 5 mps 747 mmHg 77%
    01:00 +8°C° 0 mm 5 mps 747 mmHg 78%
    02:00 +8°C° 0 mm 5 mps 747 mmHg 79%
    03:00 +7°C° 0 mm 5 mps 748 mmHg 80%
    04:00 +7°C° 0 mm 4 mps 748 mmHg 81%
    05:00 +8°C° 0 mm 5 mps 748 mmHg 74%
    06:00 +9°C° 0 mm 5 mps 749 mmHg 68%
    07:00 +10°C° 0 mm 6 mps 749 mmHg 62%
    08:00 +11°C° 0 mm 6 mps 749 mmHg 56%
    09:00 +14°C° 0 mm 6 mps 750 mmHg 51%
    10:00 +16°C° 0 mm 6 mps 750 mmHg 45%
    11:00 +17°C° 0 mm 6 mps 750 mmHg 45%
    12:00 +19°C° 0 mm 6 mps 750 mmHg 44%
    13:00 +19°C° 0 mm 6 mps 749 mmHg 43%
    14:00 +20°C° 0 mm 6 mps 749 mmHg 44%
    15:00 +20°C° 0 mm 5 mps 749 mmHg 45%
    16:00 +20°C° 0 mm 5 mps 749 mmHg 46%
    17:00 +20°C° 0 mm 5 mps 749 mmHg 52%
    18:00 +19°C° 0 mm 4 mps 749 mmHg 57%
    19:00 +18°C° 0 mm 3 mps 749 mmHg 62%
    20:00 +17°C° 0 mm 3 mps 749 mmHg 67%
    21:00 +16°C° 0 mm 2 mps 750 mmHg 72%
    22:00 +14°C° 0 mm 2 mps 750 mmHg 76%
    23:00 +14°C° 0 mm 2 mps 750 mmHg 78%

    Tomorrow, 23 May, Wednesday

    Time Temperature Precipitation Wind Pressure Humidity
    00:00 +13°C° 0 mm 2 mps 750 mmHg 80%
    01:00 +13°C° 0 mm 2 mps 750 mmHg 82%
    02:00 +13°C° 0 mm 2 mps 750 mmHg 83%
    03:00 +12°C° 0 mm 1 mps 750 mmHg 84%
    04:00 +12°C° 0 mm 1 mps 750 mmHg 85%
    05:00 +14°C° 0 mm 1 mps 750 mmHg 80%
    06:00 +15°C° 0 mm 1 mps 751 mmHg 75%
    07:00 +18°C° 0 mm 1 mps 751 mmHg 70%
    08:00 +19°C° 0 mm 1 mps 751 mmHg 65%
    09:00 +21°C° 0 mm 1 mps 751 mmHg 60%
    10:00 +23°C° 0 mm 1 mps 751 mmHg 54%
    11:00 +24°C° 0 mm 1 mps 751 mmHg 51%
    12:00 +25°C° 0 mm 1 mps 751 mmHg 47%
    13:00 +26°C° 0 mm 1 mps 750 mmHg 43%
    14:00 +26°C° 0 mm 2 mps 750 mmHg 43%
    15:00 +27°C° 0 mm 2 mps 750 mmHg 42%
    16:00 +27°C° 0 mm 2 mps 750 mmHg 42%
    17:00 +26°C° 0 mm 2 mps 749 mmHg 47%
    18:00 +25°C° 0 mm 2 mps 749 mmHg 52%
    19:00 +24°C° 0 mm 2 mps 749 mmHg 56%
    20:00 +23°C° 0 mm 2 mps 749 mmHg 60%
    21:00 +20°C° 0 mm 2 mps 748 mmHg 63%
    22:00 +18°C° 0 mm 2 mps 748 mmHg 66%
    23:00 +18°C° 0 mm 2 mps 748 mmHg 68%

    Day after tomorrow, 24 May, Thursday

    Time Temperature Precipitation Wind Pressure Humidity
    00:00 +18°C° 0 mm 1 mps 748 mmHg 70%
    01:00 +18°C° 0 mm 1 mps 747 mmHg 72%
    02:00 +16°C° 0 mm 1 mps 747 mmHg 74%
    03:00 +16°C° 0 mm 1 mps 747 mmHg 75%
    04:00 +16°C° 0 mm 1 mps 747 mmHg 77%
    05:00 +17°C° 0 mm 2 mps 746 mmHg 74%
    06:00 +18°C° 0 mm 2 mps 746 mmHg 70%
    07:00 +20°C° 0 mm 2 mps 746 mmHg 67%
    08:00 +22°C° 0 mm 3 mps 746 mmHg 61%
    09:00 +23°C° 0 mm 4 mps 745 mmHg 54%
    10:00 +26°C° 0 mm 4 mps 745 mmHg 48%
    11:00 +27°C° 0 mm 5 mps 745 mmHg 44%
    12:00 +27°C° 0 mm 5 mps 744 mmHg 41%
    13:00 +28°C° 0 mm 6 mps 744 mmHg 37%
    14:00 +28°C° 0 mm 6 mps 743 mmHg 37%
    15:00 +28°C° 0 mm 6 mps 743 mmHg 38%
    16:00 +28°C° 0 mm 6 mps 742 mmHg 38%
    17:00 +27°C° 0 mm 5 mps 742 mmHg 43%
    18:00 +26°C° 0 mm 4 mps 741 mmHg 48%
    19:00 +25°C° 0 mm 3 mps 741 mmHg 54%
    20:00 +22°C° 0 mm 3 mps 740 mmHg 56%
    21:00 +21°C° 0 mm 3 mps 740 mmHg 58%
    22:00 +19°C° 0 mm 3 mps 740 mmHg 60%
    23:00 +19°C° 0 mm 3 mps 739 mmHg 62%

    25 May, Friday

    Time Temperature Precipitation Wind Pressure Humidity
    00:00 +18°C° 0 mm 2 mps 739 mmHg 63%
    01:00 +18°C° 0 mm 2 mps 738 mmHg 65%
    02:00 +17°C° 0 mm 2 mps 738 mmHg 65%
    03:00 +17°C° 0 mm 2 mps 738 mmHg 66%
    04:00 +17°C° 0 mm 2 mps 737 mmHg 66%
    05:00 +18°C° 0 mm 3 mps 737 mmHg 67%
    06:00 +18°C° 0 mm 3 mps 737 mmHg 68%
    07:00 +19°C° 0 mm 3 mps 736 mmHg 69%
    08:00 +20°C° 0.1 mm 4 mps 736 mmHg 65%
    09:00 +21°C° 0.1 mm 5 mps 736 mmHg 62%
    10:00 +22°C° 0.1 mm 6 mps 736 mmHg 58%
    11:00 +21°C° 1.4 mm 6 mps 736 mmHg 65%
    12:00 +20°C° 1.4 mm 6 mps 736 mmHg 72%
    13:00 +17°C° 1.4 mm 6 mps 736 mmHg 79%
    14:00 +16°C° 1.5 mm 6 mps 736 mmHg 82%
    15:00 +14°C° 1.5 mm 6 mps 736 mmHg 84%
    16:00 +11°C° 1.5 mm 6 mps 736 mmHg 86%
    17:00 +10°C° 0.3 mm 6 mps 736 mmHg 86%
    18:00 +9°C° 0.3 mm 6 mps 737 mmHg 86%
    19:00 +8°C° 0.3 mm 6 mps 737 mmHg 87%
    20:00 +7°C° 0.6 mm 6 mps 737 mmHg 87%
    21:00 +7°C° 0.6 mm 6 mps 737 mmHg 87%
    22:00 +7°C° 0.6 mm 6 mps 737 mmHg 87%
    23:00 +7°C° 0.2 mm 6 mps 737 mmHg 87%

    26 May, Saturday

    Time Temperature Precipitation Wind Pressure Humidity
    00:00 +5°C° 0.2 mm 6 mps 736 mmHg 88%
    01:00 +5°C° 0.2 mm 6 mps 736 mmHg 88%
    02:00 +5°C° 0 mm 6 mps 736 mmHg 88%
    03:00 +5°C° 0 mm 7 mps 736 mmHg 88%
    04:00 +4°C° 0 mm 7 mps 736 mmHg 88%
    05:00 +5°C° 0.4 mm 8 mps 736 mmHg 88%
    06:00 +5°C° 0.4 mm 8 mps 736 mmHg 88%
    07:00 +5°C° 0.4 mm 8 mps 736 mmHg 88%
    08:00 +5°C° 0.9 mm 8 mps 736 mmHg 86%
    09:00 +5°C° 0.9 mm 9 mps 737 mmHg 84%
    10:00 +6°C° 0.9 mm 9 mps 737 mmHg 82%
    11:00 +6°C° 0.7 mm 9 mps 737 mmHg 79%
    12:00 +6°C° 0.7 mm 9 mps 737 mmHg 75%
    13:00 +7°C° 0.7 mm 9 mps 738 mmHg 72%
    14:00 +7°C° 0.5 mm 9 mps 738 mmHg 70%
    15:00 +7°C° 0.5 mm 9 mps 738 mmHg 68%
    16:00 +8°C° 0.5 mm 9 mps 739 mmHg 66%
    17:00 +7°C° 0.4 mm 8 mps 739 mmHg 67%
    18:00 +7°C° 0.4 mm 8 mps 739 mmHg 68%
    19:00 +6°C° 0.4 mm 7 mps 739 mmHg 69%
    20:00 +6°C° 0.4 mm 7 mps 739 mmHg 69%
    21:00 +5°C° 0.4 mm 7 mps 740 mmHg 70%
    22:00 +5°C° 0.4 mm 7 mps 740 mmHg 70%
    23:00 +5°C° 0.4 mm 8 mps 740 mmHg 71%

    27 May, Sunday

    Time Temperature Precipitation Wind Pressure Humidity
    00:00 +4°C° 0.4 mm 8 mps 739 mmHg 71%
    01:00 +4°C° 0.4 mm 8 mps 739 mmHg 72%
    02:00 +4°C° 0.5 mm 8 mps 739 mmHg 72%
    03:00 +3°C° 0.5 mm 9 mps 739 mmHg 71%
    04:00 +3°C° 0.5 mm 9 mps 739 mmHg 71%
    05:00 +3°C° 1.2 mm 9 mps 738 mmHg 72%
    06:00 +3°C° 1.2 mm 10 mps 738 mmHg 72%
    07:00 +3°C° 1.2 mm 10 mps 738 mmHg 73%
    08:00 +3°C° 1 mm 10 mps 738 mmHg 74%
    09:00 +3°C° 1 mm 10 mps 738 mmHg 75%
    10:00 +3°C° 1 mm 10 mps 738 mmHg 76%
    11:00 +3°C° 1.5 mm 10 mps 737 mmHg 77%
    12:00 +3°C° 1.5 mm 10 mps 737 mmHg 78%
    13:00 +5°C° 1.5 mm 9 mps 737 mmHg 79%
    14:00 +5°C° 1.6 mm 9 mps 737 mmHg 79%
    15:00 +5°C° 1.6 mm 9 mps 737 mmHg 79%
    16:00 +5°C° 1.6 mm 9 mps 737 mmHg 79%
    17:00 +5°C° 0.9 mm 8 mps 737 mmHg 80%
    18:00 +5°C° 0.9 mm 7 mps 737 mmHg 81%
    19:00 +5°C° 0.9 mm 6 mps 737 mmHg 81%
    20:00 +5°C° 0.2 mm 6 mps 736 mmHg 82%
    21:00 +5°C° 0.2 mm 5 mps 736 mmHg 83%
    22:00 +5°C° 0.2 mm 4 mps 736 mmHg 84%
    23:00 +5°C° 0 mm 4 mps 736 mmHg 85%
    Show more